Home > Weather > Cuxhaven > Past weeks

Flag for Germany Past Weather in Cuxhaven, Lower Saxony, Germany — Yesterday and Last 2 Weeks

Now
73 °F

Scattered clouds.


Feels Like: 76 °F
Forecast: 61 / 73 °F
Wind: 8 mph from Southwest

Location: Nordholz

Current Time: Aug 26, 2016 at 10:40:54 AM

Latest Report: Aug 26, 2016 at 9:20 AM


Visibility: N/A

Pressure: 29.92 "Hg

Humidity: 61%

Dew Point: 59 °F

Location of CuxhavenLocation

Past Weather in Cuxhaven — Graph

°F

Cuxhaven Temperature Yesterday

Maximum temperature yesterday: 88 °F (at 4:20 PM)
Minimum temperature yesterday: 64 °F (at 6:20 AM)
Average temperature yesterday: 76 °F

High & Low Weather Summary for the Past Weeks

 TemperatureHumidityPressure
High88 °F (Aug 25, 4:20 PM)100% (Aug 11, 3:20 PM)30.30 "Hg (Aug 11, 3:20 PM)
Low50 °F (Aug 17, 6:20 AM)38% (Aug 25, 5:20 PM)29.77 "Hg (Aug 20, 5:20 AM)
Average63 °F81%30.07 "Hg
* Reported Aug 11 9:20 AM — Aug 26 9:20 AM, Cuxhaven, Weather by CustomWeather, © 2016

Note: Actual official high and low records may vary slightly from our data, if they occured in-between our weather recording intervals... More about our weather records

Advertising

Cuxhaven Weather History for the Previous 24 Hours

Scroll right to see more
 ConditionsComfort  
Time TempWeatherWind HumidityBarometerVisibility
9:20 AM
Fri, Aug 26
73 °FScattered clouds.8 mph61%29.92 "HgN/A
8:20 AM73 °FPartly sunny.8 mph57%29.92 "HgN/A
7:20 AM70 °FPassing clouds.9 mph60%29.92 "HgN/A
6:20 AM68 °FPassing clouds.8 mph60%29.92 "HgN/A
5:20 AM68 °FPassing clouds.8 mph64%29.92 "HgN/A
4:20 AM68 °FPassing clouds.7 mph60%29.92 "HgN/A
3:20 AM70 °FPassing clouds.12 mph53%29.92 "HgN/A
2:20 AM70 °FPassing clouds.9 mph57%29.92 "HgN/A
1:20 AM72 °FMild.9 mph57%29.92 "HgN/A
12:20 AM73 °FPassing clouds.9 mph57%29.95 "HgN/A
11:20 PM
Thu, Aug 25
75 °FPassing clouds.7 mph61%29.95 "HgN/A
10:20 PM75 °FPassing clouds.6 mph61%29.95 "HgN/A
9:20 PM75 °FPassing clouds.5 mph69%29.98 "HgN/A
8:20 PM81 °FPassing clouds.3 mph58%29.98 "HgN/A
7:20 PM84 °FPassing clouds.3 mph48%29.98 "HgN/A
6:20 PM88 °FPassing clouds.6 mph40%29.98 "HgN/A
5:20 PM88 °FPassing clouds.10 mph38%30.01 "HgN/A
4:20 PM88 °FPassing clouds.13 mph40%30.01 "HgN/A
3:20 PM86 °FScattered clouds.14 mph43%30.01 "HgN/A
2:20 PM86 °FScattered clouds.14 mph43%30.04 "HgN/A
1:20 PM84 °FPartly sunny.8 mph51%30.04 "HgN/A
12:20 PM82 °FPartly sunny.9 mph55%30.07 "HgN/A
11:20 AM79 °FPartly sunny.9 mph58%30.07 "HgN/A
10:20 AM77 °FPartly sunny.6 mph57%30.09 "HgN/A
Weather by CustomWeather, © 2016

See weather overviewHow to use our weather pages